THOR ABLESTAR DEB, 657

Orbit data source: Space-Track

THOR ABLESTAR DEB, 657 is space debris in LEO originally from a launch on Thu, 29 Jun 1961 UTC launched from the Air Force Eastern Test Range (AFETR). Debris objects in space refer to the collection of defunct objects orbiting the Earth. Examples of debris include non-operational satellites, rocket bodies, and fragments generated from explosions, collisions, or faulty payload assembly.

Loading next visibility...
Identifier
657, 1961-015HJ
Orbit
LEO
Country
Flag of USUS
Related business
Manufacturer
Unknown
Mission
Spacecraft
Bus & Motor
Unknown
Mass
Unknown
Launch date (UTC)
1961-06-29 (64 years ago)
Launch vehicle
Unknown
Launch site
Air Force Eastern Test Range (AFETR)
Object type
Payload
Rocket body
Debris
Shape & HBR
Unknown
Radar Cross Section
Small (<0.1 m²)

Expand to show TLE details & history
Last TLE update: 19 hours ago

TLE from 19 hours ago
0 THOR ABLESTAR DEB
1 00657U 61015HJ  25261.01617978  .00000451  00000-0  10895-2 0  9991
2 00657  66.2327 233.4382 0337905 167.2617 258.5275 13.11729061 68928
Epoch: 2025-09-18T00:23Z
TLE epoch observation values (Epoch: 2025-09-18T00:23:17.932Z)
Latitude
54.04042°
Longitude
-92.41476°
Altitude
1,283.767 km
Speed
7.191 km/s
True Right ascension
18h 02m 22s
True Declination
53° 53' 17"
Sunlit
Object was in daylight at epoch
Visualization orbit readout
Latitude
Unknown
Longitude
Unknown
Altitude
Unknown
Speed
Unknown
Apparent Right ascension
Unknown
Apparent Declination
Unknown
Sunlit
N/A
Visualization observer readout
Local Sidereal Time
12:04:32
Azimuth
Unknown
Elevation
Unknown
Doppler factor
Unknown
Orbital elements
Apogee altitude
1,471.569 km
Perigee altitude
958.418 km
Semi-major axis
7,593.13 km
Eccentricity
0.03379
Inclination
66.2327°
RAAN
233.4382°
Arg. of periapsis
167.2617°
True anomaly
254.76708°
Mean anomaly
258.5275°
Eccentric anomaly
256.64381°
Mean motion
3.28029 °/min
Orbital period
109.75 mins
BSTAR
0.0010895
Loading maneuver chart data...
Computing Atmospheric mass density...

Documentation

Showing up to 5 results
|